Showing default

BD-18, 40748

Orbit data source: Space-Track

BD-18, 40748 is a payload satellite owned by CNSA (CN) in MEO that was launched on Sat, 25 Jul 2015 UTC via a CHANG ZHENG 3B/YZ-1 launch vehicle from the Xichang Space Center, China (XSC). Payload-class satellites include a variety of spacecraft equipped with specific instruments for various scientific and technological missions. These include communications satellites like Starlink; space stations such as the ISS; scientific satellites like the Hubble; Earth observation satellites from companies like Planet Labs, Umbra, and HawkEye 360; GPS; miniature CubeSats for education and research; and military/defense satellites.

Loading next visibility...
Identifier
40748, 2015-037A
Orbit
MEO
Country
Flag of CNCN / PRC
Related business
Manufacturer
CAST
Mission
Awaiting activation Defense Navigation
Bus & Motor
BD-3M, Unknown motor
Mass
1,014 kg wet, ~850 kg dry
Launch date (UTC)
2015-07-25 (10 years ago)
Launch vehicle
CHANG ZHENG 3B/YZ-1
Launch site
Xichang Space Center, China (XSC)
Object type
Payload
Rocket body
Debris
Shape & HBR
Box + 2 Pan, 9.0 m
Radar Cross Section
12.638 m², Large (>1 m²)

Expand to show TLE details & history
Last TLE update: 1 day ago

TLE from 1 day ago
0 BD-18
1 40748U 15037A   25258.40323123 -.00000054  00000-0  00000-0 0  9999
2 40748  55.1131 311.4969 0011825 252.5826 107.3521  1.86229048 69005
Epoch: 2025-09-15T09:40Z
TLE epoch observation values (Epoch: 2025-09-15T09:40:39.178Z)
Latitude
0.00001°
Longitude
171.74252°
Altitude
21,538.433 km
Speed
3.778 km/s
True Right ascension
20h 46m 03s
True Declination
0° 00' 00"
Sunlit
Object was in daylight at epoch
Visualization orbit readout
Latitude
Unknown
Longitude
Unknown
Altitude
Unknown
Speed
Unknown
Apparent Right ascension
Unknown
Apparent Declination
Unknown
Sunlit
N/A
Visualization observer readout
Local Sidereal Time
06:09:48
Azimuth
Unknown
Elevation
Unknown
Doppler factor
Unknown
Orbital elements
Apogee altitude
21,561.248 km
Perigee altitude
21,495.25 km
Semi-major axis
27,906.386 km
Eccentricity
0.00118
Inclination
55.1131°
RAAN
311.4969°
Arg. of periapsis
252.5826°
True anomaly
107.48138°
Mean anomaly
107.3521°
Eccentric anomaly
107.41675°
Mean motion
0.46557 °/min
Orbital period
773.24 mins
BSTAR
0
Loading maneuver chart data...
Computing Atmospheric mass density...
Loading historical data...
Loading historical data...
Loading historical data...
Loading historical data...
Loading historical data...
Loading historical data...
Loading historical data...
Other satellites on launch #37 in the year 2015 (2015-07-25 UTC)

Documentation

Showing up to 5 results
|